Regional Weather Roundup
Issued by NWS Kansas City/Pleasant Hill, MO

Home | Current Version | Previous Version | Graphics & Text | Print | Product List | Glossary Off
Versions: 1 2 3 4 5 6 7 8 9 10 11 12 13 14 15 16 17 18 19 20 21 22 23 24 25 26 27 28 29 30 31 32 33 34 35 36 37 38 39 40 41 42 43 44 45 46 47 48

000
ASUS43 KEAX 241810
RWREAX

WEATHER ROUNDUP FOR EASTERN KANSAS AND NORTHWEST MISSOURI
NATIONAL WEATHER SERVICE KANSAS CITY/PLEASANT HILL MO
100 PM CDT TUE MAY 24 2016

KSZ040-057-103>105-MOZ028-029-037-043-241900-
...KANSAS CITY METROPOLITAN AREA...

CITY           SKY/WX    TMP DP  RH WIND       PRES   REMARKS
K.C. INTL      CLOUDY    73  63  70 SE12      29.93S
6HR MIN TEMP:  62; 6HR MAX TEMP:  74; 6HR PCP:  0.06;

K.C. DOWNTOWN  CLOUDY    73  63  70 S8        29.95R
6HR MIN TEMP:  64; 6HR MAX TEMP:  74; 6HR PCP:  0.06;

LEES SUMMIT    CLOUDY    70  65  84 SE10      29.99R
6HR MIN TEMP:  63; 6HR MAX TEMP:  70; 6HR PCP:  0.04;

OLATHE - IXD   CLOUDY    73  63  70 E5        29.99R
6HR MIN TEMP:  62; 6HR MAX TEMP:  73; 6HR PCP:  0.07;

OLATHE - OJC   CLOUDY    71  61  70 SE5       29.98R
6HR MIN TEMP:  61; 6HR MAX TEMP:  72; 6HR PCP:  0.01;

LAWRENCE       MOSUNNY   73  63  70 S10       29.94F

$$

MOZ001>008-011>017-020>025-030>033-038>040-044>046-053-054-241900-
...NORTHERN AND CENTRAL MISSOURI...

CITY           SKY/WX    TMP DP  RH WIND       PRES   REMARKS
ST. JOSEPH     PTSUNNY   73  61  65 SE9       29.85F
6HR MIN TEMP:  63; 6HR MAX TEMP:  73; 6HR PCP:  0.08;

MOSBY          CLOUDY    72  61  68 S3        29.96R
WARRENSBURG    CLOUDY    68  63  83 S8        30.00R
WHITEMAN AFB   CLOUDY    69  69 100 S10       29.98F
6HR MIN TEMP:  63; 6HR MAX TEMP:  73; 6HR PCP:  0.09;

CLINTON        CLOUDY    64  64 100 CALM      30.01F FOG
SEDALIA        CLOUDY    70  66  87 S9        30.03R
6HR MIN TEMP:  67; 6HR MAX TEMP:  72; 6HR PCP:  0.11;

WARSAW         NOT AVBL
CHILLICOTHE      N/A     76  63  64 CALM      29.95F
6HR MIN TEMP:  64; 6HR MAX TEMP:  77;

KIRKSVILLE     MOSUNNY   77  66  68 VRB5      29.97F
6HR MIN TEMP:  63; 6HR MAX TEMP:  77;


$$

MOZ041-047>049-056>058-063>065-088>090-097-241900-
...EASTERN AND SOUTHERN MISSOURI...

CITY           SKY/WX    TMP DP  RH WIND       PRES   REMARKS
ST. LOUIS INTL PTSUNNY   83  61  47 VRB7      29.99F
6HR MIN TEMP:  71; 6HR MAX TEMP:  83; 6HR PCP: TRACE;

SPIRIT OF STL  PTSUNNY   82  65  56 W8        29.97F
COLUMBIA       CLOUDY    69  66  90 S14       29.98F
JEFFERSON CITY CLOUDY    68  66  93 S6        30.01S
ROLLA          TSTM      66  65  96 E3        30.03R FOG
SPRINGFIELD    TSTM      64  61  90 N14       30.04F
BRANSON        CLOUDY    82  66  57 CALM      29.99F
JOPLIN         CLOUDY    66  65  96 N8        30.01S
WEST PLAINS    CLOUDY    70  65  84 S6        30.05S THUNDER

$$

IAZ060-094-KSZ022-034>040-054-083-096-NEZ052-066-093-241900-
...KANSAS...SOUTHEAST NEBRASKA AND IOWA...

CITY           SKY/WX    TMP DP  RH WIND       PRES   REMARKS
TOPEKA         MOSUNNY   75  62  64 SE18      29.88F
6HR MIN TEMP:  61; 6HR MAX TEMP:  77; 6HR PCP:  0.07;

MANHATTAN      SUNNY     79  76  90 SE10      29.87R
EMPORIA        CLOUDY    74  61  63 E14       29.96R
CHANUTE        CLOUDY    73  64  73 E9        29.96S
WICHITA        MOSUNNY   78  67  68 E10       29.90F
OMAHA          PTSUNNY   77  64  64 N5        29.87F
LINCOLN        CLOUDY    75  59  57 W8        29.90S
FALLS CITY     CLOUDY    78  62  57 S7        29.84R
LAMONI         CLOUDY    75  64  68 SE8G17    29.88F
DES MOINES     CLOUDY    74  63  68 VRB3      29.91F

$$




USA.gov is the U.S. government's official web portal to all federal, state and local government web resources and services.